Location: Kott?ru
(16.6209°N, 80.6208°E)
Time: 14:09:18
(UTC+00:00)

Cosmos 1975 Rocket - Pass Details

Date: 18 September 2020
Orbit: 603 x 634 km, 82.5° (Epoch: 29 October)

Event Time Altitude Azimuth Distance (km) Brightness Sun altitude
Rises 14:22:31 0° 346° (NNW) 2,849 6.8 -26.0°
Reaches altitude 10° 14:24:48 10° 340° (NNW) 1,944 5.9 -26.5°
Maximum altitude 14:28:53 44° 268° (W) 830 4.0 -27.5°
Enters shadow 14:30:07 34° 224° (SW) 986 4.3 -27.8°
